Location: Waco, TX
(31.5480°N, 97.1670°W)
Time: 10:14:12
(UTC-05:00)

ISS - Pass Details

Date: 16 August 2018
Orbit: 402 x 409 km, 51.6° (Epoch: 16 August)

Event Time Altitude Azimuth Distance (km) Brightness Sun altitude
Rises 18:50:44 0° 314° (NW) 2,316 0.9 15.9°
Reaches altitude 10° 18:52:48 10° 314° (NW) 1,455 0.0 15.4°
Maximum altitude 18:56:04 86° 225° (SW) 407 -3.5 14.8°
Drops below altitude 10° 18:59:19 10° 137° (SE) 1,452 -1.4 14.1°
Sets 19:01:24 0° 137° (SE) 2,309 -0.5 13.6°
